SL-8 DEB, 1617

Orbit data source: Space-Track

SL-8 DEB, 1617 is space debris in LEO originally from a launch on Sat, 18 Sep 1965 UTC launched from the Tyuratam Missile And Space Complex (TTMTR). Debris objects in space refer to the collection of defunct objects orbiting the Earth. Examples of debris include non-operational satellites, rocket bodies, and fragments generated from explosions, collisions, or faulty payload assembly.

Loading next visibility...
SL-8 DEB details
Identifier
1617, 1965-073J
Orbit
LEO
Last TLE update1 day ago
Origin
Flag of CISRVSN (CIS)
ManufacturerUnknown
MissionSpacecraft
Bus & MotorUnknown
MassUnknown
Launch date (UTC)
1965-09-18 (59 years ago)
Launch vehicleUnknown
Launch site
Tyuratam Missile And Space Complex (TTMTR)
Object type
Payload
Rocket body
Debris
Shape & HBRUnknown
Radar Cross SectionMedium (>0.1 m² and <1 m²)

Expand to show TLE details & history

TLE from 1 day ago
0 SL-8 DEB
1 01617U 65073J   24355.60930622  .00001495  00000-0  11699-1 0  9999
2 01617  56.1319  49.5066 0222552 320.7307 208.6656 12.34567419663305
Epoch: 2024-12-20T14:37Z
Definitive object data (Epoch: 2024-12-20T14:37:24.057Z)
Latitude9.75222°
Longitude-86.10831°
Altitude1,685.336 km
Speed6.964 km/s
True Right ascension14h 51m 39s
True Declination9° 42' 06"
Sunlit
Object was in daylight at TLE epoch
Visualization TLE readout
Latitude-31.47033°
Longitude-58.17251°
Altitude1,576.748 km
Speed7.063 km/s
Apparent Right ascension19h 22m 37s
Apparent Declination-70° 10' 49"
Sunlit
Object is in daylight
Visualization observer readout
Local Sidereal Time15:12:28
Azimuth159.895° S
Elevation-28.929°
Doppler factor1
Orbital elements
Apogee altitude1,705.518 km
Perigee altitude1,353.545 km
Semi-major axis7,907.668 km
Eccentricity0.0222552
Inclination56.1319°
RAAN49.5066°
Arg. of periapsis320.7307°
True anomaly207.47151°
Mean anomaly208.6656°
Eccentric anomaly208.06567°
Mean motion3.08653 °/min
BSTAR0.011699
Orbital period116.64 mins
Loading maneuver chart data...
Loading historical data...
Loading historical data...
Loading historical data...
Loading historical data...
Loading historical data...
Loading historical data...
Loading historical data...

SL-8 DEB Visibility forecast

Observer location: undefined°, undefined

Span
Click to sort rows by Start time (UTC) header in descending order
Start Az.
Max El. time (UTC)
Max El. Az.
Max El.
End time (UTC)
End Az.
15 mins2024-12-22 04:40:03.433Z180.199° SSW2024-12-22 04:47:03.433Z119.675° SE31.019°2024-12-22 04:55:03.433Z58.062° ENE
17 mins2024-12-22 06:41:03.433Z240.27° WSW2024-12-22 06:48:03.433Z305.222° NW42.558°2024-12-22 06:58:03.433Z43.62° NE
14 mins2024-12-22 08:46:03.433Z293.495° NW2024-12-22 08:52:03.433Z344.169° N28.573°2024-12-22 09:00:03.433Z45.205° ENE
16 mins2024-12-22 10:50:03.433Z317.83° NNW2024-12-22 10:57:03.433Z12.51° NNE29.316°2024-12-22 11:06:03.433Z77.214° E
18 mins2024-12-22 12:53:03.433Z318.669° NNW2024-12-22 13:01:03.433Z36.207° NE43.225°2024-12-22 13:11:03.433Z123.575° SE
16 mins2024-12-22 14:55:03.433Z299.726° NW2024-12-22 15:03:03.433Z237.15° WSW32.4°2024-12-22 15:11:03.433Z178.261° S
|